KG7ADK Weather Reports


time (UTC)temp
F
wind
direction
speed
knots
gust
knots
rain 1hr
in
rain 24hr
in
rain mn
in
humidity
%
barometer
mb
20260506102913 40 0 0.0 0.0 0.00 0.00 0.00 82 1017.1
20260506101803 40 0 0.0 0.0 0.00 0.00 0.00 82 1017.1
20260506100903 40 0 0.0 0.0 0.00 0.00 0.00 82 1017.1
20260506100004 41 0 0.0 0.0 0.00 0.00 0.00 82 1017.1
20260506095403 41 0 0.0 0.0 0.00 0.00 0.00 82 1017.1
20260506094503 41 0 0.0 0.0 0.00 0.00 0.00 86 1017.0
20260506093603 42 0 0.0 0.0 0.00 0.00 0.00 81 1017.0
20260506092703 41 0 0.0 0.0 0.00 0.00 0.00 82 1017.0
20260506091803 41 0 0.0 0.0 0.00 0.00 0.00 82 1016.9
20260506090903 42 0 0.0 0.0 0.00 0.00 0.00 80 1016.9
20260506090004 43 0 0.0 0.0 0.00 0.00 0.00 81 1016.7
20260506085403 43 0 0.0 0.0 0.00 0.00 0.00 82 1016.8
20260506084503 43 0 0.0 0.0 0.00 0.00 0.00 83 1016.9
20260506083813 43 0 0.0 0.0 0.00 0.00 0.00 81 1016.9
20260506082703 43 0 0.0 0.0 0.00 0.00 0.00 80 1016.9
20260506081803 43 0 0.0 0.0 0.00 0.00 0.00 78 1016.9
20260506080903 44 0 0.0 0.0 0.00 0.00 0.00 78 1016.9
20260506072703 45 0 0.0 0.0 0.00 0.00 0.00 77 1016.6
20260506071803 45 0 0.0 0.0 0.00 0.00 0.00 77 1016.5
20260506070903 45 0 0.0 0.0 0.00 0.00 0.00 77 1016.3
20260506070214 46 0 0.0 0.0 0.00 0.00 0.00 76 1016.3
20260506061803 49 0 0.0 0.0 0.00 0.00 0.00 76 1015.8
20260506060903 49 0 0.0 0.0 0.00 0.00 0.00 76 1015.8
20260506060213 49 0 0.0 0.0 0.00 0.00 0.00 75 1015.7
20260506051113 54 0 0.0 0.0 0.00 0.00 0.00 74 1015.4
20260506044714 58 0 0.0 0.0 0.00 0.00 0.00 68 1015.3
20260506043603 59 0 0.0 0.0 0.00 0.00 0.00 66 1015.3
20260506042703 60 0 0.0 0.0 0.00 0.00 0.00 68 1015.2
20260506041803 61 0 0.0 0.0 0.00 0.00 0.00 64 1015.1
20260506040903 61 0 0.0 0.0 0.00 0.00 0.00 63 1015.1
20260506040003 62 0 0.0 0.0 0.00 0.00 0.00 62 1014.9
20260506035614 62 0 0.0 0.0 0.00 0.00 0.00 64 1014.8
20260506034503 64 0 0.0 0.0 0.00 0.00 0.00 58 1014.6
20260506033603 65 285 0.0 0.9 0.00 0.00 0.00 56 1014.4
20260506032703 66 285 0.0 0.9 0.00 0.00 0.00 54 1014.3
20260506031803 67 285 0.0 1.7 0.00 0.00 0.00 53 1014.2
20260506030903 68 286 0.0 1.7 0.00 0.00 0.00 54 1014.2
20260506030004 68 287 0.0 2.6 0.00 0.00 0.00 50 1014.1
20260506025403 67 0 0.0 0.0 0.00 0.00 0.00 50 1014.0
20260506024713 68 0 0.0 0.0 0.00 0.00 0.00 49 1013.9
20260506023603 69 0 0.0 0.0 0.00 0.00 0.00 48 1013.9
20260506022914 69 0 0.0 0.0 0.00 0.00 0.00 47 1013.9
20260506022013 69 0 0.0 0.0 0.00 0.00 0.00 49 1013.9
20260506020903 70 311 0.0 0.9 0.00 0.00 0.00 46 1013.7
20260506020003 70 311 0.0 0.9 0.00 0.00 0.00 46 1013.8
20260506015403 70 333 0.0 1.7 0.00 0.00 0.00 45 1013.8
20260506014713 70 334 0.0 1.7 0.00 0.00 0.00 44 1013.8
20260506013603 71 332 0.0 0.9 0.00 0.00 0.00 45 1013.7
20260506012703 71 346 0.0 1.7 0.00 0.00 0.00 44 1013.7
20260506012013 72 355 0.0 1.7 0.00 0.00 0.00 43 1013.6
20260506011114 72 356 0.0 0.9 0.00 0.00 0.00 44 1013.5
20260506010003 71 318 0.0 1.7 0.00 0.00 0.00 43 1013.4
20260506005403 71 291 0.9 3.5 0.00 0.00 0.00 46 1013.4
20260506004504 72 277 0.9 5.2 0.00 0.00 0.00 47 1013.4
20260506003603 72 285 0.9 2.6 0.00 0.00 0.00 44 1013.3
20260506002703 73 266 0.9 2.6 0.00 0.00 0.00 44 1013.3
20260506001803 72 272 0.9 4.3 0.00 0.00 0.00 44 1013.3
20260506001114 72 278 0.9 4.3 0.00 0.00 0.00 45 1013.1
20260506000213 71 98 0.0 2.6 0.00 0.00 0.00 51 1013.2
20260505235403 70 0 0.0 0.0 0.00 0.00 0.00 49 1013.1
20260505234503 70 0 0.0 0.0 0.00 0.00 0.00 52 1013.0
20260505233603 71 0 0.0 0.0 0.00 0.00 0.00 50 1013.1
20260505232703 72 0 0.0 0.0 0.00 0.00 0.00 46 1013.1
20260505231803 73 0 0.0 0.0 0.00 0.00 0.00 41 1013.1
20260505230903 74 0 0.0 0.0 0.00 0.00 0.00 36 1013.1
20260505230004 73 166 0.0 0.9 0.00 0.00 0.00 37 1013.1
20260505225403 74 162 0.0 0.9 0.00 0.00 0.00 35 1013.1
20260505224503 74 31 0.0 1.7 0.00 0.00 0.00 36 1013.2
20260505223603 74 327 0.9 1.7 0.00 0.00 0.00 35 1013.1
20260505222703 75 12 0.9 2.6 0.00 0.00 0.00 34 1013.1
20260505221803 75 349 0.9 2.6 0.00 0.00 0.00 34 1013.1
20260505220903 76 296 1.7 3.5 0.00 0.00 0.00 35 1013.1
20260505220003 76 99 1.7 3.5 0.00 0.00 0.00 34 1013.1
20260505215403 75 100 0.9 3.5 0.00 0.00 0.00 34 1013.2
20260505214503 75 326 0.9 3.5 0.00 0.00 0.00 33 1013.1
20260505213603 76 62 0.9 4.3 0.00 0.00 0.00 32 1013.1
20260505212703 76 97 0.9 2.6 0.00 0.00 0.00 36 1013.1
20260505211803 77 93 0.9 3.5 0.00 0.00 0.00 32 1013.1
20260505210903 79 96 0.9 3.5 0.00 0.00 0.00 30 1013.1
20260505210003 79 89 1.7 5.2 0.00 0.00 0.00 31 1013.1
20260505205403 78 328 0.9 3.5 0.00 0.00 0.00 32 1013.2
20260505204713 77 282 0.9 3.5 0.00 0.00 0.00 33 1013.2
20260505203603 78 21 1.7 6.1 0.00 0.00 0.00 35 1013.3
20260505202703 79 358 0.9 3.5 0.00 0.00 0.00 34 1013.3
20260505201803 78 17 0.9 5.2 0.00 0.00 0.00 36 1013.3
20260505200903 77 19 1.7 5.2 0.00 0.00 0.00 36 1013.5
20260505200003 77 77 0.9 3.5 0.00 0.00 0.00 34 1013.5
20260505195613 77 112 0.9 3.5 0.00 0.00 0.00 37 1013.5
20260505194503 76 79 1.7 3.5 0.00 0.00 0.00 38 1013.6
20260505193603 75 90 0.9 3.5 0.00 0.00 0.00 35 1013.6
20260505192703 75 81 1.7 5.2 0.00 0.00 0.00 39 1013.7
20260505191803 75 92 0.9 2.6 0.00 0.00 0.00 41 1013.6
20260505191114 74 91 1.7 3.5 0.00 0.00 0.00 37 1013.7
20260505190004 75 78 1.7 4.3 0.00 0.00 0.00 40 1013.8
20260505185403 74 56 0.9 3.5 0.00 0.00 0.00 41 1013.8
20260505184503 74 304 0.9 4.3 0.00 0.00 0.00 38 1013.8
20260505183603 74 94 0.9 2.6 0.00 0.00 0.00 37 1013.9
20260505182703 72 106 0.9 2.6 0.00 0.00 0.00 38 1013.9
20260505181803 72 132 0.9 2.6 0.00 0.00 0.00 38 1013.8
20260505180903 71 76 0.9 4.3 0.00 0.00 0.00 38 1013.9
20260505180003 70 125 0.9 3.5 0.00 0.00 0.00 39 1013.9
20260505175403 68 83 0.9 3.5 0.00 0.00 0.00 42 1013.8
20260505174503 68 189 0.9 1.7 0.00 0.00 0.00 41 1013.8
20260505173813 67 140 0.9 1.7 0.00 0.00 0.00 44 1013.8
20260505172703 66 353 0.9 1.7 0.00 0.00 0.00 47 1013.9
20260505171803 66 58 0.9 2.6 0.00 0.00 0.00 48 1013.9
20260505170903 65 334 0.0 1.7 0.00 0.00 0.00 50 1013.9
20260505170004 65 14 0.9 2.6 0.00 0.00 0.00 49 1013.9
20260505165403 65 50 0.9 2.6 0.00 0.00 0.00 46 1013.9
20260505164503 64 141 0.0 1.7 0.00 0.00 0.00 47 1013.9
20260505163603 64 43 0.0 1.7 0.00 0.00 0.00 44 1014.0
20260505162703 63 8 0.0 2.6 0.00 0.00 0.00 49 1014.0
20260505161803 62 65 0.0 1.7 0.00 0.00 0.00 49 1014.0
20260505160903 62 98 0.9 1.7 0.00 0.00 0.00 46 1014.0
20260505152704 57 0 0.0 0.0 0.00 0.00 0.00 60 1014.0
20260505151803 56 0 0.0 0.0 0.00 0.00 0.00 57 1013.9
20260505150903 56 0 0.0 0.0 0.00 0.00 0.00 61 1013.8
20260505124503 37 0 0.0 0.0 0.00 0.00 0.00 78 1012.6
20260505123603 37 0 0.0 0.0 0.00 0.00 0.00 79 1012.4
20260505122703 37 0 0.0 0.0 0.00 0.00 0.00 78 1012.4
20260505121803 37 0 0.0 0.0 0.00 0.00 0.00 76 1012.5
20260505120903 38 0 0.0 0.0 0.00 0.00 0.00 76 1012.5
20260505120004 37 0 0.0 0.0 0.00 0.00 0.00 76 1012.4
20260505115403 37 0 0.0 0.0 0.00 0.00 0.00 76 1012.4
20260505114503 37 0 0.0 0.0 0.00 0.00 0.00 76 1012.4
20260505113813 37 0 0.0 0.0 0.00 0.00 0.00 76 1012.2
20260505112914 37 0 0.0 0.0 0.00 0.00 0.00 76 1012.2
20260505111803 38 0 0.0 0.0 0.00 0.00 0.00 75 1012.2
20260505111113 38 0 0.0 0.0 0.00 0.00 0.00 75 1012.2
20260505110214 38 0 0.0 0.0 0.00 0.00 0.00 75 1012.1